Location: S�deilles
(46.7500°N, 6.9329°E)
Time: 05:49:20
(UTC+00:00)

SPOT 3 Rocket - Pass Details

Date: 08 March 2021
Orbit: 778 x 795 km, 98.7° (Epoch: 22 April)

Event Time Altitude Azimuth Distance (km) Brightness Sun altitude
Exits shadow 19:24:25 39° 81° (E) 1,176 4.0 -20.5°
Maximum altitude 19:24:54 40° 67° (ENE) 1,158 4.0 -20.6°
Drops below altitude 10° 19:29:46 10° 359° (N) 2,376 6.2 -21.4°
Sets 19:32:13 0° 352° (N) 3,311 7.1 -21.8°
